TimeCST,TemperatureF,Dew PointF,Humidity,Sea Level PressureIn,VisibilityMPH,Wind Direction,Wind SpeedMPH,Gust SpeedMPH,PrecipitationIn,Events,Conditions,WindDirDegrees,DateUTC
12:15 AM,40.6,33.4,75,29.94,7.0,North,12.7,21.9,N/A,,Overcast,350,2013-03-05 06:15:00
12:35 AM,40.5,33.8,77,29.94,7.0,North,12.7,25.3,N/A,,Mostly Cloudy,350,2013-03-05 06:35:00
12:55 AM,40.5,34.0,78,29.94,7.0,North,15.0,24.2,N/A,,Mostly Cloudy,350,2013-03-05 06:55:00
1:15 AM,40.5,35.1,81,29.95,7.0,North,17.3,25.3,N/A,,Mostly Cloudy,360,2013-03-05 07:15:00
1:35 AM,40.1,34.7,81,29.97,10.0,North,13.8,26.5,N/A,,Mostly Cloudy,360,2013-03-05 07:35:00
1:55 AM,39.2,34.2,82,29.99,10.0,North,12.7,21.9,N/A,,Mostly Cloudy,350,2013-03-05 07:55:00
2:15 AM,39.2,34.2,82,30.01,7.0,North,12.7,20.7,N/A,,Overcast,350,2013-03-05 08:15:00
2:35 AM,38.1,35.2,89,30.04,5.0,NNW,15.0,19.6,N/A,,Overcast,330,2013-03-05 08:35:00
2:55 AM,37.9,38.1,100,30.03,5.0,NNW,11.5,17.3,N/A,,Overcast,340,2013-03-05 08:55:00
3:15 AM,-9999,-9999,N/A,30.03,7.0,North,10.4,-,N/A,,Mostly Cloudy,350,2013-03-05 09:15:00
3:35 AM,-9999,-9999,N/A,30.04,7.0,NW,5.8,17.3,N/A,,Mostly Cloudy,320,2013-03-05 09:35:00
3:55 AM,-9999,-9999,N/A,30.07,7.0,NW,8.1,-,N/A,,Mostly Cloudy,320,2013-03-05 09:55:00
4:15 AM,-9999,-9999,N/A,30.07,10.0,NW,9.2,-,N/A,,Mostly Cloudy,320,2013-03-05 10:15:00
4:55 AM,37.9,37.0,97,30.08,10.0,NNW,15.0,23.0,N/A,,Overcast,330,2013-03-05 10:55:00
5:15 AM,37.9,35.2,90,30.09,10.0,NNW,17.3,27.6,N/A,,Overcast,330,2013-03-05 11:15:00
5:35 AM,37.9,32.0,79,30.09,10.0,NNW,17.3,24.2,N/A,,Overcast,330,2013-03-05 11:35:00
6:15 AM,36.5,28.4,72,30.11,10.0,NW,11.5,-,N/A,,Mostly Cloudy,320,2013-03-05 12:15:00
6:35 AM,35.6,25.7,67,30.12,10.0,NW,12.7,26.5,N/A,,Mostly Cloudy,320,2013-03-05 12:35:00
6:55 AM,35.6,22.3,58,30.13,10.0,NNW,21.9,34.5,N/A,,Mostly Cloudy,330,2013-03-05 12:55:00
7:15 AM,35.6,22.3,58,30.14,10.0,NNW,18.4,26.5,N/A,,Overcast,330,2013-03-05 13:15:00
7:35 AM,33.8,22.3,63,30.15,10.0,NNW,17.3,23.0,N/A,,Scattered Clouds,330,2013-03-05 13:35:00
7:55 AM,32.9,20.7,61,30.16,10.0,NNW,21.9,29.9,N/A,,Clear,330,2013-03-05 13:55:00
8:15 AM,32.9,19.9,59,30.17,10.0,NNW,19.6,28.8,N/A,,Clear,330,2013-03-05 14:15:00
8:35 AM,32.9,18.9,56,30.18,10.0,NNW,19.6,28.8,N/A,,Clear,330,2013-03-05 14:35:00
8:55 AM,32.9,18.7,56,30.19,10.0,NNW,23.0,32.2,N/A,,Clear,330,2013-03-05 14:55:00
9:15 AM,34.0,19.4,55,30.19,10.0,NW,18.4,28.8,N/A,,Clear,320,2013-03-05 15:15:00
9:35 AM,35.1,20.1,55,30.20,10.0,NNW,18.4,27.6,N/A,,Clear,330,2013-03-05 15:35:00
9:55 AM,35.6,20.8,55,30.21,10.0,NW,17.3,26.5,N/A,,Clear,320,2013-03-05 15:55:00
10:15 AM,35.6,21.2,56,30.21,10.0,NNW,19.6,25.3,N/A,,Clear,330,2013-03-05 16:15:00
10:35 AM,35.6,21.0,55,30.22,10.0,NW,19.6,32.2,N/A,,Clear,320,2013-03-05 16:35:00
10:55 AM,35.6,21.4,56,30.22,10.0,NW,17.3,25.3,N/A,,Clear,320,2013-03-05 16:55:00
11:15 AM,36.0,21.4,55,30.22,10.0,NNW,16.1,26.5,N/A,,Clear,330,2013-03-05 17:15:00
11:35 AM,37.0,22.1,55,30.23,10.0,NW,19.6,26.5,N/A,,Clear,320,2013-03-05 17:35:00
11:55 AM,37.9,23.7,57,30.22,10.0,NW,15.0,24.2,N/A,,Scattered Clouds,310,2013-03-05 17:55:00
12:15 PM,37.9,23.5,56,30.22,10.0,NW,12.7,24.2,N/A,,Scattered Clouds,310,2013-03-05 18:15:00
12:35 PM,38.1,23.2,55,30.22,10.0,NW,18.4,27.6,N/A,,Clear,320,2013-03-05 18:35:00
12:55 PM,39.4,24.3,55,30.22,10.0,NW,13.8,28.8,N/A,,Scattered Clouds,310,2013-03-05 18:55:00
1:15 PM,40.1,25.0,55,30.22,10.0,NNW,20.7,26.5,N/A,,Scattered Clouds,330,2013-03-05 19:15:00
1:35 PM,40.5,25.2,54,30.22,10.0,NW,16.1,25.3,N/A,,Scattered Clouds,320,2013-03-05 19:35:00
1:55 PM,40.6,25.3,54,30.21,10.0,NNW,17.3,26.5,N/A,,Scattered Clouds,330,2013-03-05 19:55:00
2:15 PM,40.8,25.2,54,30.22,10.0,NW,16.1,24.2,N/A,,Scattered Clouds,310,2013-03-05 20:15:00
2:35 PM,41.2,25.3,53,30.21,10.0,NW,16.1,26.5,N/A,,Scattered Clouds,320,2013-03-05 20:35:00
2:55 PM,41.9,25.5,52,30.22,10.0,NW,15.0,21.9,N/A,,Scattered Clouds,320,2013-03-05 20:55:00
3:15 PM,41.7,25.3,52,30.22,10.0,NW,15.0,23.0,N/A,,Scattered Clouds,310,2013-03-05 21:15:00
3:35 PM,41.9,25.5,52,30.22,10.0,NW,18.4,24.2,N/A,,Scattered Clouds,320,2013-03-05 21:35:00
3:55 PM,41.9,25.0,51,30.22,10.0,NW,12.7,24.2,N/A,,Scattered Clouds,310,2013-03-05 21:55:00
4:15 PM,41.9,25.3,52,30.22,10.0,NNW,13.8,25.3,N/A,,Scattered Clouds,330,2013-03-05 22:15:00
4:35 PM,41.5,25.0,52,30.23,10.0,NW,12.7,24.2,N/A,,Scattered Clouds,320,2013-03-05 22:35:00
4:55 PM,41.0,24.8,53,30.24,10.0,NNW,13.8,25.3,N/A,,Scattered Clouds,340,2013-03-05 22:55:00
5:15 PM,40.5,24.1,52,30.24,10.0,NNW,16.1,27.6,N/A,,Clear,340,2013-03-05 23:15:00
5:35 PM,40.5,24.4,53,30.24,10.0,NNW,20.7,26.5,N/A,,Clear,330,2013-03-05 23:35:00
5:55 PM,39.9,24.3,54,30.25,10.0,NNW,15.0,24.2,N/A,,Clear,340,2013-03-05 23:55:00
6:15 PM,38.1,22.8,54,30.25,10.0,NNW,12.7,21.9,N/A,,Clear,340,2013-03-06 00:15:00
6:35 PM,37.9,23.4,56,30.26,10.0,North,10.4,20.7,N/A,,Clear,350,2013-03-06 00:35:00
6:55 PM,37.4,23.7,58,30.27,10.0,NNW,12.7,-,N/A,,Clear,340,2013-03-06 00:55:00
7:15 PM,36.1,22.6,58,30.28,10.0,North,10.4,17.3,N/A,,Clear,350,2013-03-06 01:15:00
7:35 PM,35.6,22.5,59,30.29,10.0,NNW,8.1,-,N/A,,Clear,330,2013-03-06 01:35:00
7:55 PM,35.6,23.9,62,30.29,10.0,NNW,5.8,-,N/A,,Clear,330,2013-03-06 01:55:00
8:15 PM,35.6,24.8,65,30.29,10.0,NW,4.6,-,N/A,,Clear,320,2013-03-06 02:15:00
8:35 PM,35.6,25.2,66,30.30,10.0,NNW,6.9,-,N/A,,Clear,330,2013-03-06 02:35:00
8:55 PM,35.6,24.8,65,30.31,10.0,NNW,5.8,-,N/A,,Clear,330,2013-03-06 02:55:00
9:15 PM,33.8,23.9,67,30.33,10.0,NNW,4.6,-,N/A,,Clear,330,2013-03-06 03:15:00
9:35 PM,32.9,23.7,69,30.33,10.0,NNW,5.8,-,N/A,,Clear,340,2013-03-06 03:35:00
9:55 PM,32.9,23.7,69,30.33,10.0,NNW,8.1,-,N/A,,Clear,340,2013-03-06 03:55:00
10:15 PM,32.9,22.8,66,30.34,10.0,NNW,8.1,-,N/A,,Clear,340,2013-03-06 04:15:00
10:35 PM,32.9,21.9,64,30.34,10.0,NNW,9.2,-,N/A,,Clear,340,2013-03-06 04:35:00
10:55 PM,32.9,22.1,65,30.34,10.0,NNW,10.4,-,N/A,,Clear,340,2013-03-06 04:55:00
11:15 PM,32.9,22.5,65,30.34,10.0,NNW,9.2,-,N/A,,Clear,340,2013-03-06 05:15:00
11:35 PM,32.2,21.9,66,30.34,10.0,NNW,9.2,-,N/A,,Clear,330,2013-03-06 05:35:00
11:55 PM,32.0,21.4,65,30.34,10.0,NNW,9.2,-,N/A,,Clear,330,2013-03-06 05:55:00